FW0530 Weather Reports


Display with metric or nautical units.
time (UTC)temp
F
wind
direction
speed
MPH
gust
MPH
rain 1hr
in
rain 24hr
in
rain mn
in
humidity
%
barometer
mb
20260506013054 69 157 2.0 6.0 0.00 0.00 0.00 50 1006.2
20260506011552 70 184 5.0 12.0 0.00 0.00 0.00 49 1006.0
20260506010043 70 178 4.0 8.0 0.00 0.00 0.00 48 1005.8
20260506004542 70 175 4.0 11.0 0.00 0.00 0.00 48 1005.7
20260506003042 70 138 3.0 8.0 0.00 0.00 0.00 49 1005.6
20260506001641 71 146 4.0 9.0 0.00 0.00 0.00 47 1005.2
20260506000045 73 169 5.0 11.0 0.00 0.00 0.00 45 1005.0
20260505234540 75 141 4.0 10.0 0.00 0.00 0.00 46 1005.0
20260505233039 76 195 5.0 13.0 0.00 0.00 0.00 45 1004.9
20260505231548 76 167 5.0 14.0 0.00 0.00 0.00 45 1004.9
20260505230039 77 169 6.0 16.0 0.00 0.00 0.00 44 1004.8
20260505224538 77 188 5.0 13.0 0.00 0.00 0.00 44 1004.8
20260505223037 78 145 7.0 15.0 0.00 0.00 0.00 43 1004.7
20260505221538 78 159 7.0 14.0 0.00 0.00 0.00 42 1004.7
20260505220039 79 138 6.0 20.0 0.00 0.00 0.00 39 1004.8
20260505214559 80 178 5.0 20.0 0.00 0.00 0.00 36 1004.7
20260505213035 81 173 9.0 17.0 0.00 0.00 0.00 35 1004.8
20260505211535 83 148 7.0 23.0 0.00 0.00 0.00 36 1004.6
20260505210036 83 170 8.0 20.0 0.00 0.00 0.00 36 1004.6
20260505204533 84 129 13.0 20.0 0.00 0.00 0.00 36 1004.7
20260505203027 83 128 9.0 18.0 0.00 0.00 0.00 36 1004.6
20260505201525 83 167 6.0 20.0 0.00 0.00 0.00 39 1004.7
20260505200029 83 143 11.0 18.0 0.00 0.00 0.00 37 1005.0
20260505194523 84 138 10.0 22.0 0.00 0.00 0.00 36 1005.0
20260505193021 83 157 6.0 29.0 0.00 0.00 0.00 41 1005.2
20260505191519 83 178 10.0 21.0 0.00 0.00 0.00 38 1005.4
20260505190025 83 150 12.0 26.0 0.00 0.00 0.00 41 1005.4
20260505184516 83 167 10.0 20.0 0.00 0.00 0.00 43 1005.7
20260505183016 83 168 6.0 21.0 0.00 0.00 0.00 46 1005.9
20260505181510 82 183 6.0 19.0 0.00 0.00 0.00 44 1006.1
20260505180014 81 107 9.0 18.0 0.00 0.00 0.00 41 1006.2
20260505174509 81 171 12.0 25.0 0.00 0.00 0.00 45 1006.3
20260505173007 82 136 9.0 19.0 0.00 0.00 0.00 45 1006.3
20260505171508 82 193 9.0 17.0 0.00 0.00 0.00 43 1006.5
20260505170007 82 165 7.0 18.0 0.00 0.00 0.00 45 1006.7
20260505164501 81 174 3.0 14.0 0.00 0.00 0.00 50 1006.8
20260505163059 81 182 10.0 16.0 0.00 0.00 0.00 43 1007.1
20260505161605 80 169 10.0 19.0 0.00 0.00 0.00 43 1007.4
20260505153101 79 197 8.0 13.0 0.00 0.00 0.00 47 1007.9
20260505151600 79 140 8.0 21.0 0.00 0.00 0.00 49 1007.8
20260505124523 66 164 6.0 14.0 0.00 0.00 0.00 67 1008.7
20260505123014 65 146 8.0 12.0 0.00 0.00 0.00 66 1008.9
20260505121512 64 173 6.0 11.0 0.00 0.00 0.00 69 1009.0
20260505120020 63 174 4.0 8.0 0.00 0.00 0.00 69 1009.1
20260505114506 62 153 5.0 10.0 0.00 0.00 0.00 70 1009.0
20260505113003 61 185 4.0 9.0 0.00 0.00 0.00 72 1008.7
20260505111503 59 159 5.0 9.0 0.00 0.00 0.00 74 1008.6
20260505101556 59 162 3.0 7.0 0.00 0.00 0.00 73 1008.1
20260505100054 59 185 3.0 10.0 0.00 0.00 0.00 73 1007.9
20260505094553 59 153 4.0 12.0 0.00 0.00 0.00 74 1007.9
20260505093058 59 145 2.0 11.0 0.00 0.00 0.00 74 1007.7
20260505091602 59 144 3.0 12.0 0.00 0.00 0.00 74 1007.7
20260505090050 59 150 3.0 11.0 0.00 0.00 0.00 74 1007.7
20260505084552 59 157 2.0 9.0 0.00 0.00 0.00 73 1007.7
20260505083054 60 158 2.0 8.0 0.00 0.00 0.00 72 1007.5
20260505081550 60 152 4.0 12.0 0.00 0.00 0.00 73 1007.5
20260505080049 59 123 5.0 11.0 0.00 0.00 0.00 74 1007.5
20260505074547 57 182 3.0 10.0 0.00 0.00 0.00 76 1007.5
20260505073147 57 160 2.0 9.0 0.00 0.00 0.00 76 1007.3
20260505071554 57 159 1.0 5.0 0.00 0.00 0.00 76 1007.3
20260505070041 57 171 2.0 6.0 0.00 0.00 0.00 76 1007.2
20260505064541 58 142 2.0 5.0 0.00 0.00 0.00 77 1007.2
20260505063038 58 159 3.0 6.0 0.00 0.00 0.00 77 1007.3
20260505061537 58 152 3.0 7.0 0.00 0.00 0.00 77 1007.5
20260505060045 58 162 1.0 7.0 0.00 0.00 0.00 75 1007.6
20260505054534 59 167 2.0 7.0 0.00 0.00 0.00 74 1007.6
20260505053030 60 150 2.0 6.0 0.00 0.00 0.00 72 1007.7
20260505051527 61 188 2.0 7.0 0.00 0.00 0.00 71 1007.7
20260505041521 62 166 3.0 12.0 0.00 0.00 0.00 70 1007.3
20260505040012 63 169 4.0 11.0 0.00 0.00 0.00 68 1007.3
20260505034511 64 184 3.0 7.0 0.00 0.00 0.00 67 1007.3
20260505033012 65 188 2.0 5.0 0.00 0.00 0.00 66 1007.3
20260505031507 65 172 4.0 9.0 0.00 0.00 0.00 65 1007.4
20260505030007 65 144 5.0 12.0 0.00 0.00 0.00 63 1007.4
20260505024509 65 160 5.0 11.0 0.00 0.00 0.00 65 1007.4
20260505023017 64 175 6.0 13.0 0.00 0.00 0.00 66 1007.5
20260505021506 63 165 4.0 10.0 0.00 0.00 0.00 67 1007.2
20260505020006 64 167 3.0 8.0 0.00 0.00 0.00 65 1007.2
20260505014511 65 163 4.0 6.0 0.00 0.00 0.00 64 1007.2